Content
SEND FEEDBACK

Daily
Averages
Monthly
Summary
United States of America

LANCASTER, KENTUCKY


Home > North America > United States > Kentucky
Elevation: 103 feet     Latitude: 37 37N     Longitude: 084 35W

WEATHER
 
SELECT A DAY
Number of Records: 150,967;   Date Range: 3/25/08 - 8/27/14
 
SHARE

PRINT THIS DATA

[ ← Previous Day ]
WEATHER ALMANAC - MARCH 12, 2014
[ Next Day → ]
[ °C ]   °F
Weather ElementAverageHighLow
Temperature45.8 °F60.8 °F (1:15 am)30.2 °F (11:35 pm)
Dewpoint40.1 °F55.4 °F (6:35 am)24.8 °F (9:15 pm)
Humidity81.1 %94 % (6:55 am)59 % (12:55 am)
Barometer29.65 in30.02 in (11:55 pm)29.35 in (9:15 am)
Wind Speed14.5 mph28.8 mph (10:15 am)
Wind Gust41.4 mph (10:55 am)
Weather ElementAverage
Visibility9.1 mi
Wind DirectionWNW (283.1 °)

Weather ElementTotal
Precipitation---
Heating Degree Days19.5 (Base 65)
Averaged from 70 records on March 12, 2014
WEATHER CONDITIONS BREAKOUT
WIND DIRECTION BREAKOUT
WEATHER BY HOUR - MARCH 12, 2014
[ °C ]   °F
Local TimeTemperatureDewpointHumidityBarometerVisibilityWind DirectionWind SpeedGust SpeedPrecipitationEventsConditions
12:35 AM57.2 °F44.6 °F63 %29.60 in10.0 miSW (220°)9.2 mphMostly Cloudy
12:55 AM59.0 °F44.6 °F59 %29.59 in10.0 miSSW (210°)8.1 mphMostly Cloudy
1:15 AM60.8 °F46.4 °F59 %29.57 in10.0 miSW (220°)11.5 mphScattered Clouds
1:35 AM57.2 °F46.4 °F67 %29.55 in10.0 miSSW (210°)5.8 mphClear
1:55 AM57.2 °F46.4 °F67 %29.55 in10.0 miSW (220°)8.1 mphClear
2:15 AM59.0 °F46.4 °F63 %29.54 in10.0 miSW (230°)8.1 mphScattered Clouds
2:35 AM59.0 °F48.2 °F67 %29.53 in10.0 miSW (220°)8.1 mphOvercast
2:55 AM59.0 °F50.0 °F72 %29.52 in10.0 miSW (230°)5.8 mphOvercast
3:15 AM60.8 °F50.0 °F68 %29.52 in10.0 miSW (230°)6.9 mphOvercast
3:35 AM60.8 °F50.0 °F68 %29.50 in10.0 miSW (220°)6.9 mphOvercast
3:55 AM60.8 °F50.0 °F68 %29.48 in10.0 miSW (220°)12.7 mph16.1 mphMostly Cloudy
4:15 AM60.8 °F51.8 °F72 %29.47 in10.0 miSW (220°)13.8 mph19.6 mphMostly Cloudy
4:35 AM60.8 °F51.8 °F72 %29.46 in10.0 miSSW (210°)12.7 mph20.7 mphRainRain
4:55 AM60.8 °F51.8 °F72 %29.45 in10.0 miSW (220°)11.5 mph18.4 mphMostly Cloudy
5:15 AM60.8 °F51.8 °F72 %29.44 in10.0 miSW (220°)12.7 mph20.7 mphMostly Cloudy
5:35 AM60.8 °F51.8 °F72 %29.43 in10.0 miSW (220°)12.7 mph20.7 mphOvercast
5:55 AM60.8 °F53.6 °F77 %29.43 in10.0 miSW (220°)12.7 mph18.4 mphOvercast
6:15 AM59.0 °F53.6 °F82 %29.42 in10.0 miSW (220°)11.5 mph20.7 mphRainRain
6:35 AM59.0 °F55.4 °F88 %29.42 in5.0 miSW (220°)11.5 mph17.3 mphRainHeavy Rain
6:55 AM57.2 °F55.4 °F94 %29.41 in4.0 miSW (220°)11.5 mphRainHeavy Rain
7:15 AM57.2 °F55.4 °F94 %29.41 in4.0 miSW (220°)11.5 mph18.4 mphRainRain
7:35 AM57.2 °F55.4 °F94 %29.40 in4.0 miSW (230°)11.5 mph17.3 mphHeavy Drizzle
7:55 AM57.2 °F55.4 °F94 %29.38 in10.0 miSW (230°)16.1 mph24.2 mphOvercast
8:15 AM59.0 °F55.4 °F88 %29.37 in10.0 miSW (230°)15.0 mph24.2 mphOvercast
8:35 AM59.0 °F55.4 °F88 %29.37 in10.0 miWSW (240°)17.3 mph24.2 mphOvercast
8:55 AM59.0 °F55.4 °F88 %29.36 in10.0 miSW (230°)17.3 mph26.5 mphOvercast
9:15 AM59.0 °F55.4 °F88 %29.35 in10.0 miWSW (240°)18.4 mph29.9 mphOvercast
9:35 AM59.0 °F55.4 °F88 %29.35 in10.0 miSW (230°)23.0 mph28.8 mphOvercast
9:55 AM59.0 °F55.4 °F88 %29.37 in2.0 miWest (280°)26.5 mph40.3 mphRainHeavy Rain
10:15 AM53.6 °F51.8 °F94 %29.40 in7.0 miWNW (290°)28.8 mph39.1 mphRainRain
10:35 AM51.8 °F46.4 °F82 %29.42 in10.0 miWNW (290°)27.6 mph34.5 mphOvercast
10:55 AM46.4 °F42.8 °F87 %29.44 in10.0 miWNW (290°)23.0 mph41.4 mphOvercast
11:15 AM44.6 °F42.8 °F93 %29.47 in10.0 miWNW (300°)24.2 mph35.7 mphOvercast
11:35 AM42.8 °F41.0 °F93 %29.49 in10.0 miWNW (290°)21.9 mph35.7 mphOvercast
11:55 AM41.0 °F39.2 °F93 %29.51 in5.0 miWNW (300°)27.6 mph38.0 mphDrizzle
12:15 PM41.0 °F37.4 °F87 %29.54 in7.0 miWNW (290°)17.3 mph34.5 mphOvercast
12:35 PM39.2 °F37.4 °F93 %29.58 in3.0 miNW (310°)23.0 mph36.8 mphRainHeavy Rain
12:55 PM37.4 °F33.8 °F87 %29.61 in7.0 miNW (320°)16.1 mph35.7 mphLight Drizzle
1:15 PM37.4 °F33.8 °F87 %29.63 in10.0 miNW (320°)19.6 mph29.9 mphOvercast
1:35 PM37.4 °F33.8 °F87 %29.65 in7.0 miNW (320°)19.6 mph33.4 mphDrizzle
2:15 PM37.4 °F33.8 °F87 %29.68 in7.0 miNW (310°)20.7 mph29.9 mphRainRain
2:35 PM37.4 °F32.0 °F81 %29.70 in10.0 miNNW (330°)20.7 mph28.8 mphOvercast
2:55 PM37.4 °F32.0 °F81 %29.70 in10.0 miNW (320°)21.9 mph29.9 mphOvercast
3:15 PM37.4 °F32.0 °F81 %29.73 in10.0 miNNW (340°)19.6 mph24.2 mphOvercast
3:35 PM37.4 °F32.0 °F81 %29.74 in10.0 miNNW (330°)16.1 mph21.9 mphOvercast
3:55 PM37.4 °F32.0 °F81 %29.75 in10.0 miNNW (330°)16.1 mph21.9 mphOvercast
4:15 PM35.6 °F32.0 °F87 %29.77 in10.0 miNNW (330°)17.3 mph23.0 mphOvercast
4:35 PM35.6 °F32.0 °F87 %29.79 in10.0 miNNW (330°)15.0 mph21.9 mphSnowLight Snow
4:55 PM35.6 °F32.0 °F87 %29.81 in10.0 miNNW (330°)13.8 mph25.3 mphOvercast
5:15 PM35.6 °F32.0 °F87 %29.82 in10.0 miNW (320°)17.3 mph25.3 mphSnowLight Snow
5:35 PM35.6 °F32.0 °F87 %29.83 in10.0 miNNW (330°)13.8 mph23.0 mphSnowLight Snow
5:55 PM33.8 °F32.0 °F93 %29.84 in7.0 miNW (320°)16.1 mph25.3 mphSnowLight Snow
6:15 PM33.8 °F30.2 °F87 %29.86 in10.0 miNNW (330°)12.7 mph24.2 mphSnowLight Snow
6:35 PM33.8 °F30.2 °F87 %29.87 in10.0 miNNW (330°)16.1 mph21.9 mphOvercast
6:55 PM33.8 °F30.2 °F87 %29.88 in10.0 miNorth (350°)11.5 mph19.6 mphSnowLight Snow
7:15 PM33.8 °F28.4 °F81 %29.90 in10.0 miNNW (330°)17.3 mph24.2 mphOvercast
7:35 PM33.8 °F28.4 °F81 %29.91 in10.0 miNNW (340°)16.1 mph25.3 mphOvercast
7:55 PM32.0 °F28.4 °F87 %29.93 in10.0 miNNW (340°)16.1 mph25.3 mphMostly Cloudy
8:15 PM32.0 °F26.6 °F80 %29.94 in10.0 miNNW (340°)13.8 mph18.4 mphScattered Clouds
8:35 PM32.0 °F26.6 °F80 %29.95 in10.0 miNNW (330°)11.5 mph17.3 mphScattered Clouds
8:55 PM32.0 °F26.6 °F80 %29.95 in10.0 miNNW (340°)8.1 mphClear
9:15 PM32.0 °F24.8 °F75 %29.97 in10.0 miNNW (340°)12.7 mph17.3 mphClear
9:35 PM32.0 °F24.8 °F75 %29.98 in10.0 miNNW (340°)10.4 mph16.1 mphClear
9:55 PM32.0 °F24.8 °F75 %29.99 in10.0 miNNW (340°)9.2 mphMostly Cloudy
10:15 PM32.0 °F24.8 °F75 %29.99 in10.0 miNNW (340°)8.1 mphMostly Cloudy
10:35 PM32.0 °F24.8 °F75 %29.99 in10.0 miNNW (330°)5.8 mphOvercast
10:55 PM32.0 °F24.8 °F75 %30.00 in10.0 miNNW (330°)5.8 mphMostly Cloudy
11:15 PM32.0 °F24.8 °F75 %30.00 in10.0 miNNW (330°)8.1 mphOvercast
11:35 PM30.2 °F24.8 °F80 %30.01 in10.0 miNNW (340°)12.7 mphOvercast
11:55 PM30.2 °F26.6 °F86 %30.02 in10.0 miNNW (330°)6.9 mphMostly Cloudy
Hourly data recorded from KDVK, located miles away from Lancaster, Kentucky







STORIES FROM OUR PARTNERS